STARLINK-32947, 63121

Orbit data source: Space-Track

STARLINK-32947, 63121 is a payload satellite owned by SpaceX/Seattle (US) in LEO that was launched on Thu, 27 Feb 2025 UTC via an FALCON 9 launch vehicle from the Air Force Eastern Test Range (AFETR). Payload-class satellites include a variety of spacecraft equipped with specific instruments for various scientific and technological missions. These include communications satellites like Starlink; space stations such as the ISS; scientific satellites like the Hubble; Earth observation satellites from companies like Planet Labs, Umbra, and HawkEye 360; GPS; miniature CubeSats for education and research; and military/defense satellites.

Loading next visibility...
Identifier
63121, 2025-039T
Orbit
LEO
Country
Flag of USUS
Related business
Manufacturer
SpaceX/Seattle
Mission
Operational Commercial Communications
Bus & Motor
STARLINK V2M, Unknown motor
Mass
730 kg wet, ~700 kg dry
Launch date (UTC)
2025-02-27 (8 months ago)
Launch vehicle
FALCON 9
Launch site
Air Force Eastern Test Range (AFETR)
Object type
Payload
Rocket body
Debris
Shape & HBR
Box + 2 Pan, 17.7 m
Radar Cross Section
33.884 m², Large (>1 m²)

Expand to show TLE details & history
Last TLE update: 13 hours ago

TLE from 13 hours ago
0 STARLINK-32947
1 63121U 25039T   25295.40412736  .00033072  00000-0  12048-2 0  9994
2 63121  43.0005  73.2445 0000730 126.4010 233.6909 15.27610258 36925
Epoch: 2025-10-22T09:41Z
TLE epoch observation values (Epoch: 2025-10-22T09:41:56.603Z)
Latitude
-0.00004°
Longitude
-103.31961°
Altitude
483.031 km
Speed
7.626 km/s
True Right ascension
04h 52m 58s
True Declination
0° 00' 00"
Sunlit
Object was in full shadow at epoch
Visualization orbit readout
Latitude
Unknown
Longitude
Unknown
Altitude
Unknown
Speed
Unknown
Apparent Right ascension
Unknown
Apparent Declination
Unknown
Sunlit
N/A
Visualization observer readout
Local Sidereal Time
17:54:48
Azimuth
Unknown
Elevation
Unknown
Doppler factor
Unknown
Orbital elements
Apogee altitude
485.405 km
Perigee altitude
484.403 km
Semi-major axis
6,863.041 km
Eccentricity
0.00007
Inclination
43.0005°
RAAN
73.2445°
Arg. of periapsis
126.401°
True anomaly
233.68416°
Mean anomaly
233.6909°
Eccentric anomaly
233.68753°
Mean motion
3.81741 °/min
Orbital period
94.3 mins
BSTAR
0.0012048
Loading maneuver chart data...
Computing Atmospheric mass density...
Loading historical data...
Loading historical data...
Loading historical data...
Loading historical data...
Loading historical data...
Loading historical data...
Loading historical data...

Documentation

Showing up to 5 results
|